Location: *
(43.9900°N, 3.4811°E)
Time: 15:54:34
(UTC+00:00)

SPOT 1/Viking Rocket - Pass Details

Date: 25 August 2019
Orbit: 777 x 795 km, 98.5° (Epoch: 14 September)

Event Time Altitude Azimuth Distance (km) Brightness Sun altitude
Exits shadow 20:47:49 47° 107° (ESE) 1,053 3.8 -21.8°
Maximum altitude 20:48:46 53° 71° (ENE) 971 3.8 -21.9°
Drops below altitude 10° 20:53:51 10° 355° (N) 2,370 6.6 -22.6°
Sets 20:56:13 0° 351° (N) 3,301 7.6 -22.9°
